Location: Table Mountain
(47.2500°N, 120.5778°W)
Time: 09:53:35
(UTC-07:00)

Envisat - Pass Details

Date: 14 October 2017
Orbit: 764 x 766 km, 98.2° (Epoch: 18 October)

Event Time Altitude Azimuth Distance (km) Brightness Sun altitude
Exits shadow 22:20:39 14° 273° (W) 2,062 5.7 -40.3°
Maximum altitude 22:20:40 14° 273° (W) 2,062 5.7 -40.3°
Drops below altitude 10° 22:23:09 10° 302° (WNW) 2,306 6.1 -40.6°
Sets 22:26:44 0° 329° (NNW) 3,238 7.0 -41.1°
